Wind_Speed
15 13 13 13 12 13 15 15 16 16 17 19 21 22 22 21 22 23 23 22 25 27 27 28 32 33 30 28 30 32 33 34 32 32 35 36 36 34 30 30 31 31 32
15 13 13 17 16 14 16 17 18 19 20 21 22 23 24 25 26 26 26 27 28 30 31 32 34 37 33 32 32 31 34 38 39 37 38 40 39 39 38 38 38 37 38
17 14 16 16 17 16 18 19 19 20 22 24 22 24 28 30 30 31 30 20 29 30 32 39 42 40 34 35 35 34 31 29 33 36 30 35 40 40 40 42 45 47 48
17 16 16 17 19 19 19 21 21 21 23 26 28 29 28 24 24 22 17 16 21 20 24 25 16 14 22 33 37 37 34 31 32 33 29 29 27 34 32 34 35 33 37
18 19 19 21 23 23 23 23 23 26 32 32 22 25 24 26 25 25 23 23 23 22 24 28 19 17 26 28 34 35 34 32 31 32 34 31 30 32 33 34 33 31 34
19 21 21 21 21 20 23 24 27 27 27 28 24 25 25 25 25 25 25 24 24 25 24 23 22 23 28 31 31 34 36 33 31 32 34 35 35 34 34 32 32 29 25
17 17 19 19 18 18 17 19 24 26 24 24 22 23 24 23 24 25 27 27 27 27 28 25 25 25 24 28 28 31 32 32 33 33 32 34 34 37 38 35 34 31 28
16 17 19 18 18 18 18 19 20 20 18 19 20 20 20 20 22 27 28 27 25 22 22 22 22 22 24 26 26 28 29 30 32 31 31 31 33 33 34 34 34 32 29
8 11 11 12 12 12 12 12 13 14 15 16 15 16 19 22 21 27 22 21 19 18 17 17 20 22 24 27 25 24 24 25 26 28 29 29 30 31 32 32 34 33 29
5 4 2 3 5 6 7 7 9 12 13 15 17 18 18 19 19 18 18 18 18 17 16 15 14 15 16 17 18 20 22 24 26 27 27 27 27 26 27 29 30 30 29
8 5 2 2 2 3 4 7 8 11 12 12 13 14 16 18 18 18 18 19 19 21 21 20 19 16 15 15 16 18 20 22 23 24 25 24 22 21 21 22 23 25 27
1 2 2 4 4 4 5 6 8 8 10 10 12 15 18 19 18 19 20 20 20 19 17 18 20 19 16 15 15 16 19 20 20 20 21 23 22 20 19 21 21 22 23
2 1 4 5 5 5 6 7 8 10 10 12 14 15 16 18 20 21 20 20 20 20 20 20 21 21 20 21 22 23 22 22 21 22 23 19 18 18 17 18 20 22 23
3 3 4 4 5 5 7 8 9 10 12 13 14 16 17 17 19 20 20 21 21 19 19 19 20 20 20 22 23 25 26 25 24 21 18 18 17 16 13 10 13 17 19
3 2 2 4 5 6 7 8 9 10 11 12 13 14 15 18 20 21 21 21 21 22 22 20 19 21 21 23 25 27 29 28 25 23 21 17 17 16 17 16 15 14 14
3 1 2 3 5 5 6 7 7 9 10 12 13 15 16 18 18 19 19 20 23 22 23 21 21 22 23 25 26 29 30 30 28 24 18 17 15 14 15 15 13 11 10
4 1 0 2 4 5 6 8 9 10 11 12 14 15 16 18 20 21 17 18 22 22 22 17 20 21 23 25 29 31 32 30 28 25 20 13 11 12 12 12 10 10 10
5 3 1 2 3 5 6 8 10 10 12 13 14 15 17 19 20 21 19 18 21 19 20 19 19 21 25 26 29 32 30 29 27 26 20 11 7 8 9 11 11 10 9
6 4 2 2 3 4 5 7 8 8 10 13 14 15 17 18 18 19 20 19 19 17 19 21 20 22 25 27 29 31 30 28 27 25 20 13 10 11 11 10 10 10 9
7 5 4 4 6 6 6 6 8 8 10 12 15 16 17 19 19 20 20 20 19 18 19 19 20 21 23 25 28 29 29 27 26 23 19 16 14 14 13 14 14 11 10
8 8 7 7 7 7 6 6 7 8 10 12 15 17 18 19 20 19 20 21 21 20 19 18 17 19 22 23 25 28 28 26 24 23 21 19 17 17 15 13 13 13 12
12 11 10 8 8 7 7 7 6 7 9 11 14 16 18 18 20 21 21 22 21 20 21 20 19 19 20 21 21 23 24 24 22 21 20 19 18 18 18 18 17 15 14
10 8 7 7 7 6 5 6 6 7 9 11 13 15 17 18 19 20 21 21 21 20 20 22 19 18 17 17 18 19 21 22 23 21 20 19 18 18 18 18 17 15 14
9 9 8 7 7 6 6 6 7 7 9 11 13 15 16 17 18 19 19 20 21 18 17 19 19 16 16 15 14 16 19 21 20 20 20 20 19 19 19 19 19 18 17
10 10 10 9 8 8 8 8 8 8 10 12 14 16 17 18 18 19 20 19 19 19 17 16 18 17 16 15 15 14 14 16 18 19 19 19 20 21 22 22 21 21 20
10 11 12 11 10 9 9 9 10 12 14 15 17 17 18 19 19 18 20 20 20 19 18 16 16 17 17 15 16 16 17 17 16 17 19 21 21 22 24 27 27 24 21
Wind_Direction
244 248 260 261 258 264 269 272 274 274 280 287 286 290 287 287 289 292 292 287 285 286 284 281 275 271 271 269 270 271 268 263 256 258 266 268 271 270 270 272 273 273 273
255 259 271 273 264 262 261 265 271 277 281 284 289 290 288 287 284 284 289 290 283 281 282 279 275 271 266 269 268 272 275 278 279 274 263 258 262 267 271 270 271 273 275
268 261 264 266 269 266 263 266 273 280 285 284 282 278 279 278 280 282 280 286 284 273 284 286 294 257 262 264 264 276 277 274 285 290 295 276 268 268 273 273 275 277 272
288 282 278 282 285 287 288 284 288 287 283 277 278 278 287 302 344 352 335 308 296 293 286 293 293 255 262 265 266 272 283 275 285 286 286 283 273 277 281 282 284 289 281
273 277 282 291 290 273 287 290 288 283 281 311 324 307 328 335 333 330 330 322 311 301 288 287 282 267 266 262 274 277 279 281 281 283 289 283 283 282 287 292 296 301 306
274 280 285 283 287 279 281 284 291 304 312 317 322 323 334 332 330 331 328 324 319 311 296 284 289 281 275 274 277 277 281 282 283 280 284 286 286 282 283 285 284 281 280
276 279 281 280 282 289 299 297 302 306 310 318 327 332 333 332 333 329 324 319 310 307 304 299 291 286 283 285 286 285 287 288 286 283 281 281 281 282 283 283 285 281 278
263 261 265 271 277 284 288 291 293 304 316 322 329 336 338 338 336 331 325 324 315 307 294 292 292 290 291 292 294 292 291 291 287 287 287 285 284 282 281 280 278 278 276
246 249 259 270 277 282 291 299 308 315 321 326 334 338 337 337 338 348 343 343 343 337 328 307 298 298 296 297 295 293 291 290 289 291 295 297 296 294 287 281 277 276 271
255 261 245 269 292 303 308 311 316 325 332 334 336 341 346 353 353 352 4 360 356 351 343 331 322 316 317 322 322 320 318 315 312 310 306 307 307 302 293 283 277 277 272
94 81 69 61 22 333 313 304 312 322 325 337 341 344 352 353 356 1 5 4 7 9 13 14 14 6 353 341 334 329 322 314 307 302 299 298 305 310 306 293 284 281 278
72 95 42 9 355 336 317 327 329 327 335 339 343 349 347 350 354 357 4 6 9 11 14 14 13 11 10 8 358 347 344 341 342 338 316 305 304 301 301 302 298 288 281
22 2 342 349 353 335 336 349 348 352 345 351 349 343 346 352 354 357 356 356 1 4 4 5 9 8 6 5 2 358 354 348 339 332 329 336 332 307 300 298 294 291 291
276 311 335 351 357 344 350 350 349 349 347 345 345 345 345 347 348 350 351 352 353 352 355 0 0 359 357 356 354 355 352 346 340 335 330 327 319 322 329 339 328 318 311
262 310 353 12 9 359 2 359 355 348 350 350 351 348 348 350 352 351 349 348 352 352 354 353 352 353 355 354 353 352 348 343 339 333 327 323 321 319 314 310 302 327 339
223 270 349 356 5 17 14 7 357 357 359 353 351 348 350 352 351 352 346 347 356 351 350 351 349 353 356 355 355 352 347 342 337 334 328 314 310 316 317 322 322 310 336
197 202 318 356 8 4 12 11 8 5 357 353 348 347 347 351 351 356 360 353 355 356 347 341 348 352 356 356 355 352 349 346 343 339 330 322 311 317 323 329 334 327 322
197 208 248 313 343 352 2 9 12 9 1 350 347 346 345 351 353 353 360 355 355 354 354 350 346 351 354 356 355 354 355 359 2 0 353 351 346 337 336 339 341 345 347
211 218 260 307 327 339 340 356 356 356 357 350 350 355 350 349 351 350 355 356 350 350 354 353 354 356 355 358 357 1 6 12 14 12 14 25 22 10 1 353 349 351 344
223 242 276 305 318 330 330 329 326 345 351 348 352 355 352 352 352 351 351 355 355 353 353 352 355 357 357 2 3 9 14 16 20 23 26 28 25 20 17 15 8 1 350
239 254 270 288 298 305 308 308 307 335 349 347 347 347 348 352 353 353 348 352 356 354 354 353 354 4 2 3 8 14 18 22 24 25 24 21 20 16 16 12 11 6 352
245 254 263 269 274 282 292 305 318 336 340 343 345 345 344 344 348 354 352 351 355 353 352 353 353 0 358 2 11 16 18 18 23 27 28 24 21 20 16 11 8 0 354
239 248 252 254 260 271 288 306 324 340 329 333 339 340 339 341 344 345 349 351 351 354 350 349 348 357 357 359 13 13 13 16 16 14 16 15 13 12 12 9 5 0 357
243 248 251 253 263 273 281 292 307 321 324 324 324 327 330 333 335 338 339 346 343 350 345 345 346 347 351 348 357 14 11 12 13 13 12 10 6 5 3 359 357 355 352
254 259 262 265 271 281 289 289 297 309 318 317 315 315 317 323 325 329 333 333 338 345 343 343 341 337 340 336 341 351 360 3 4 3 6 6 5 3 2 360 359 357 354
268 275 278 282 288 291 292 295 306 315 320 316 315 311 308 311 314 319 322 324 327 331 336 336 332 330 326 329 327 331 340 345 352 355 356 358 360 2 2 358 358 358 356
Height
5920 5921 5921 5921 5919 5918 5916 5916 5915 5916 5916 5914 5910 5909 5908 5909 5908 5907 5907 5907 5906 5903 5903 5902 5900 5899 5898 5896 5896 5896 5895 5892 5891 5891 5890 5888 5886 5884 5882 5882 5882 5882 5881
5917 5917 5917 5918 5918 5916 5914 5913 5913 5912 5911 5910 5908 5906 5904 5903 5901 5900 5901 5901 5899 5897 5894 5892 5891 5891 5889 5886 5886 5886 5886 5884 5881 5880 5879 5878 5877 5877 5875 5872 5871 5872 5872
5914 5914 5914 5914 5915 5914 5912 5911 5911 5910 5907 5904 5903 5901 5898 5894 5892 5891 5890 5889 5885 5888 5884 5883 5876 5878 5881 5878 5877 5877 5875 5875 5874 5869 5869 5868 5868 5867 5865 5864 5862 5860 5859
5912 5912 5912 5912 5911 5911 5910 5908 5906 5904 5901 5895 5893 5884 5877 5884 5887 5886 5886 5884 5883 5879 5877 5872 5869 5867 5870 5869 5870 5869 5868 5866 5864 5863 5861 5859 5858 5857 5857 5855 5853 5848 5845
5908 5908 5909 5909 5908 5906 5905 5904 5903 5899 5887 5882 5883 5887 5888 5884 5884 5881 5879 5877 5875 5871 5867 5867 5865 5861 5863 5863 5863 5861 5861 5860 5858 5855 5854 5852 5849 5850 5848 5847 5844 5842 5839
5903 5904 5904 5902 5903 5903 5902 5899 5896 5888 5888 5887 5886 5885 5881 5880 5879 5876 5873 5871 5867 5863 5861 5859 5854 5854 5856 5857 5854 5851 5852 5850 5850 5847 5846 5844 5842 5839 5839 5838 5836 5834 5833
5900 5900 5900 5901 5900 5898 5897 5895 5892 5889 5887 5886 5884 5881 5877 5876 5873 5871 5868 5863 5859 5857 5853 5850 5849 5849 5849 5849 5846 5844 5843 5840 5840 5839 5837 5834 5834 5829 5828 5826 5825 5825 5824
5896 5897 5896 5897 5896 5894 5893 5892 5890 5887 5886 5883 5881 5879 5876 5874 5871 5866 5861 5857 5854 5850 5848 5844 5843 5842 5842 5841 5838 5836 5835 5832 5831 5829 5828 5826 5823 5821 5818 5817 5815 5814 5815
5894 5895 5894 5892 5891 5891 5890 5888 5886 5885 5884 5882 5880 5877 5875 5873 5869 5864 5859 5854 5849 5845 5841 5840 5838 5836 5835 5834 5833 5831 5828 5826 5824 5822 5818 5815 5813 5809 5807 5805 5804 5804 5805
5890 5891 5891 5891 5890 5889 5888 5887 5886 5884 5882 5880 5878 5876 5874 5871 5868 5864 5860 5855 5850 5846 5842 5838 5836 5834 5831 5828 5826 5823 5820 5818 5815 5812 5810 5807 5804 5801 5798 5796 5795 5793 5793
5888 5890 5890 5890 5889 5889 5887 5886 5885 5884 5882 5880 5878 5876 5872 5869 5866 5862 5858 5854 5850 5846 5841 5837 5834 5831 5828 5826 5823 5821 5818 5815 5811 5808 5804 5801 5798 5794 5791 5789 5786 5785 5784
5889 5889 5889 5889 5888 5887 5886 5886 5884 5883 5880 5879 5876 5873 5870 5867 5864 5860 5857 5853 5849 5846 5843 5840 5836 5833 5829 5826 5823 5820 5816 5812 5808 5803 5799 5795 5792 5789 5786 5784 5782 5780 5778
5888 5889 5889 5888 5887 5886 5885 5884 5883 5880 5878 5877 5875 5873 5870 5866 5862 5859 5855 5852 5848 5845 5842 5839 5835 5832 5829 5826 5822 5818 5813 5808 5804 5800 5796 5792 5788 5783 5781 5778 5777 5774 5772
5889 5889 5888 5888 5887 5886 5885 5884 5882 5880 5878 5876 5874 5872 5869 5865 5862 5859 5856 5852 5849 5846 5843 5839 5836 5832 5828 5825 5820 5815 5810 5805 5801 5796 5792 5788 5785 5782 5778 5775 5773 5770 5766
5888 5889 5889 5888 5887 5887 5886 5883 5881 5880 5878 5876 5873 5871 5868 5864 5861 5858 5855 5852 5849 5845 5842 5838 5835 5832 5828 5823 5818 5812 5807 5802 5797 5792 5787 5784 5781 5778 5775 5774 5772 5770 5766
5888 5889 5888 5888 5888 5887 5886 5885 5883 5881 5879 5876 5873 5871 5868 5865 5862 5859 5855 5851 5848 5844 5841 5837 5834 5830 5825 5821 5816 5810 5804 5799 5793 5788 5783 5780 5778 5776 5774 5771 5769 5767 5765
5889 5889 5888 5888 5887 5887 5886 5885 5882 5880 5877 5875 5872 5870 5867 5865 5861 5859 5855 5851 5847 5843 5840 5836 5833 5829 5825 5819 5814 5808 5802 5796 5789 5784 5779 5776 5774 5773 5772 5770 5767 5765 5764
5888 5888 5888 5888 5887 5887 5885 5883 5881 5879 5877 5874 5872 5870 5867 5864 5861 5858 5855 5851 5848 5844 5840 5835 5832 5828 5824 5819 5814 5808 5801 5794 5787 5781 5777 5774 5773 5772 5771 5769 5767 5765 5764
5886 5886 5886 5887 5886 5885 5884 5882 5880 5879 5877 5874 5872 5870 5866 5863 5860 5857 5853 5850 5847 5843 5839 5835 5831 5828 5824 5819 5813 5807 5800 5794 5788 5783 5779 5777 5775 5774 5771 5769 5767 5765 5764
5884 5884 5885 5885 5884 5883 5882 5881 5880 5878 5876 5874 5871 5869 5866 5863 5860 5857 5853 5850 5847 5843 5839 5835 5831 5828 5824 5819 5813 5808 5802 5796 5791 5787 5784 5780 5777 5775 5772 5770 5767 5766 5764
5881 5882 5882 5882 5881 5881 5880 5880 5879 5877 5875 5873 5870 5867 5865 5862 5859 5855 5852 5849 5846 5843 5839 5835 5831 5828 5824 5819 5814 5809 5804 5799 5794 5790 5786 5783 5780 5777 5774 5771 5769 5766 5765
5878 5879 5878 5878 5878 5878 5878 5878 5877 5875 5873 5871 5868 5866 5863 5861 5857 5854 5851 5847 5845 5841 5838 5834 5831 5828 5825 5820 5815 5811 5806 5802 5797 5793 5789 5786 5783 5779 5776 5772 5769 5767 5764
5875 5875 5875 5875 5876 5876 5876 5874 5873 5872 5871 5868 5866 5864 5862 5858 5855 5852 5849 5846 5843 5840 5836 5833 5831 5829 5825 5821 5815 5811 5808 5804 5800 5796 5792 5789 5785 5781 5778 5775 5771 5767 5764
5872 5872 5872 5873 5873 5873 5872 5871 5870 5869 5868 5866 5864 5862 5859 5856 5852 5850 5847 5844 5842 5839 5836 5833 5830 5827 5824 5821 5816 5812 5808 5805 5801 5797 5793 5790 5786 5782 5779 5775 5771 5767 5764
5868 5869 5869 5870 5870 5869 5869 5868 5867 5866 5864 5862 5860 5858 5855 5852 5849 5847 5844 5842 5839 5837 5834 5831 5829 5826 5823 5820 5816 5812 5808 5804 5802 5799 5795 5792 5788 5785 5781 5776 5772 5768 5764
5865 5865 5865 5865 5865 5865 5865 5864 5864 5862 5861 5859 5856 5854 5851 5848 5846 5843 5841 5838 5835 5833 5830 5828 5826 5824 5821 5818 5815 5811 5808 5804 5801 5799 5796 5792 5788 5784 5780 5777 5773 5768 5764